Lid_Strength_Index
8 11 14 11 11 13 14 16 17 15 14 15 14 15 13 11 13 12 13 13 13 11 11 9 5 4 3 3 2 2 2 2 1 1 1 1 2 1 1 0 0 0 -0 -0
11 13 9 8 9 11 14 16 17 15 13 16 16 16 15 14 13 12 12 12 12 12 12 11 9 7 6 3 3 2 2 2 2 1 1 1 1 1 0 0 0 0 0 -0
12 11 8 9 10 11 13 14 15 15 14 16 18 19 17 14 14 13 12 11 11 11 11 12 11 10 9 10 7 2 2 2 2 2 0 1 1 1 1 1 1 0 0 1
11 8 9 10 11 10 14 11 11 14 17 21 18 24 19 17 16 15 14 13 12 13 12 12 12 12 10 11 12 10 4 2 2 2 2 1 2 3 2 1 0 0 -0 0
12 11 11 12 11 9 12 9 11 12 16 18 19 22 20 17 18 16 14 15 13 13 12 12 12 11 11 10 9 11 9 6 4 2 1 1 2 1 1 1 1 1 0 0
11 9 10 10 9 9 8 10 11 12 14 21 18 20 22 18 17 16 15 14 13 13 13 13 13 12 12 11 10 9 9 8 8 6 3 2 2 2 2 2 2 2 2 3
12 11 9 8 11 9 10 13 20 21 22 22 16 19 19 15 15 15 14 14 14 13 14 14 15 15 14 14 12 10 11 12 10 10 10 8 8 6 5 5 3 4 5 5
17 20 11 9 10 12 12 13 18 24 22 19 16 20 18 13 11 12 12 13 13 14 15 15 15 15 15 15 14 13 13 12 13 12 12 11 10 9 9 9 9 8 7 8
16 16 10 9 9 9 13 14 12 16 20 21 18 16 13 12 11 12 13 13 14 14 15 16 16 16 16 16 16 15 14 14 13 12 13 12 12 12 12 11 10 10 9 10
12 16 11 10 9 9 11 9 16 17 25 25 18 18 17 13 13 11 12 13 13 14 15 16 16 16 16 16 16 16 15 15 15 14 13 14 14 13 13 13 12 11 11 11
10 14 13 11 13 13 12 14 13 14 16 21 21 19 13 12 11 11 12 12 12 13 15 16 16 16 16 16 17 17 16 16 16 16 15 15 15 14 13 13 13 13 13 13
9 12 17 14 10 9 10 13 13 17 20 17 17 18 11 11 10 11 12 12 13 13 14 15 15 16 16 17 17 17 16 16 16 15 15 15 15 15 15 14 14 14 14 14
10 13 23 18 14 11 13 12 12 13 14 17 20 19 10 10 11 11 13 13 14 14 14 15 16 16 17 17 17 17 16 16 16 16 16 15 15 15 15 14 13 13 14 14
8 13 20 20 15 14 15 13 12 13 17 16 16 15 12 12 12 12 13 13 14 14 14 15 16 16 16 17 17 17 16 16 16 16 16 17 17 16 15 15 15 14 14 14
12 18 14 15 14 13 16 14 12 15 16 16 16 16 12 11 10 12 12 13 13 14 15 16 16 16 16 16 17 17 17 16 16 16 16 17 16 16 16 17 16 16 15 15
10 20 17 20 12 12 15 13 12 14 16 13 15 16 10 9 9 12 12 13 14 14 14 15 15 16 16 16 17 17 17 17 17 18 18 17 17 17 17 17 17 16 17 16
14 16 20 22 15 17 21 15 13 12 12 13 17 13 10 10 10 11 11 12 12 13 15 15 15 16 16 16 16 17 18 17 18 18 18 18 18 18 18 17 17 17 18 17
17 19 20 19 22 27 15 12 12 12 11 10 10 11 9 9 9 10 9 11 12 13 14 15 16 17 17 17 17 17 17 18 18 19 19 18 18 18 18 18 18 18 18 18
10 18 22 23 28 19 15 13 14 15 14 13 12 10 10 10 11 12 10 10 10 12 13 14 15 17 17 17 17 18 18 19 19 19 19 19 18 18 19 19 19 18 18 18
11 12 19 27 27 27 15 13 12 11 17 13 13 12 11 10 13 11 12 12 13 13 14 15 15 16 17 16 16 17 18 19 19 19 19 19 18 19 19 19 19 18 18 18
19 25 21 27 27 20 14 11 11 19 16 13 12 12 11 11 12 14 14 15 14 14 15 15 15 17 17 17 17 18 19 20 20 19 19 19 19 19 19 19 19 18 19 19
19 23 25 27 27 23 12 12 14 12 12 12 12 11 11 13 14 14 15 15 15 16 16 16 17 18 18 18 18 19 20 20 20 20 20 20 20 19 19 20 20 19 19 20
18 15 18 16 16 12 12 11 10 10 11 11 12 11 12 13 15 15 16 16 16 16 16 17 18 19 19 19 18 20 21 21 21 22 22 22 21 20 20 20 21 21 21 21
14 13 14 14 13 11 10 10 10 10 11 10 10 10 11 14 15 17 17 16 17 18 18 20 19 20 21 20 19 21 21 22 22 23 23 22 22 21 21 19 19 21 21 21
13 13 14 14 14 12 10 11 10 11 12 12 14 14 13 13 14 15 16 17 18 19 20 20 20 21 21 22 22 22 22 22 22 22 22 21 22 21 21 20 21 19 19 19
13 12 13 13 11 11 12 15 16 14 14 13 15 16 16 15 13 15 16 17 18 19 20 20 20 21 22 23 23 23 22 21 21 22 21 22 21 23 22 22 22 18 17 16